This is the latest recevied weather packets stored in our database for station/object N9XRG. If no packets are shown the sender has not sent any weather packets the latest 10 day(s).
| Time | Temp. | Humidity | Pressure | Rain* | Wind** | Luminosity | Snow |
|---|---|---|---|---|---|---|---|
| 1778089971 | 13.89° C | 44% | 1013.7 hPa | 0 mm | - | 263 W/m² | - |
| 1778089668 | 13.89° C | 44% | 1013.3 hPa | 0 mm | - | 325 W/m² | - |
| 1778089365 | 13.89° C | 41% | 1013.3 hPa | 0 mm | - | 394 W/m² | - |
| 1778089063 | 13.89° C | 43% | 1013.4 hPa | 0 mm | - | 512 W/m² | - |
| 1778088760 | 13.89° C | 42% | 1013.3 hPa | 0 mm | - | 530 W/m² | - |
| 1778088457 | 13.89° C | 44% | 1013.4 hPa | 0 mm | - | 475 W/m² | - |
| 1778088153 | 13.89° C | 40% | 1013.6 hPa | 0 mm | - | 472 W/m² | - |
| 1778087851 | 13.89° C | 45% | 1013.3 hPa | 0 mm | - | 458 W/m² | - |
| 1778087548 | 13.33° C | 44% | 1013.3 hPa | 0 mm | - | 462 W/m² | - |
| 1778087246 | 13.89° C | 41% | 1013.3 hPa | 0 mm | - | 427 W/m² | - |
| 1778086942 | 13.89° C | 42% | 1013.4 hPa | 0 mm | - | 449 W/m² | - |
| 1778086641 | 13.89° C | 45% | 1013.2 hPa | 0 mm | - | 485 W/m² | - |
| 1778086337 | 13.89° C | 42% | 1013.2 hPa | 0 mm | - | 643 W/m² | - |
| 1778086034 | 13.89° C | 43% | 1013.5 hPa | 0 mm | - | 603 W/m² | - |
| 1778085731 | 13.89° C | 43% | 1013.3 hPa | 0 mm | - | 517 W/m² | - |
| 1778085428 | 13.33° C | 43% | 1013.4 hPa | 0 mm | - | 407 W/m² | - |
| 1778085123 | 13.33° C | 41% | 1013.3 hPa | 0 mm | - | 390 W/m² | - |
| 1778084819 | 13.33° C | 42% | 1013.3 hPa | 0 mm | - | 362 W/m² | - |
| 1778084517 | 13.33° C | 42% | 1013.5 hPa | 0 mm | - | 369 W/m² | - |
| 1778084214 | 13.89° C | 43% | 1013.5 hPa | 0 mm | - | 417 W/m² | - |
| 1778083910 | 13.89° C | 44% | 1013.3 hPa | 0 mm | - | 501 W/m² | - |
| 1778083608 | 13.89° C | 41% | 1013.4 hPa | 0 mm | - | 439 W/m² | - |
| 1778083305 | 13.89° C | 40% | 1013.4 hPa | 0 mm | - | 494 W/m² | - |
| 1778083003 | 13.89° C | 41% | 1013.6 hPa | 0 mm | - | 533 W/m² | - |
| 1778082700 | 14.44° C | 40% | 1013.6 hPa | 0 mm | - | 570 W/m² | - |
* Rain latest hour (hover to see other rain measurements)
** Current wind speed in m/s (hover to see current wind gust speed)